Darstellungsparameter: Aktuell verwendete Einstellungen:
Skalierung der Graphiken ... ?
xyx+y,   Skalierungsfaktor:      Skalierung: Modus: x, Faktor: 1
Darstellungszeitraum ... ?
Vom - - bis: - -   Zeitraum: 09.05.2020 - 15.05.2020
Min/Max/Avg-Anzeige ... ?
Zeige MMA aktuell
Zeige MMA Monat
Zeige MMA alles
Zeige --A aktuell
Zeige --A Monat
Zeige --A alles
Keine MMA-Anzeige
MMA:
Average (ber die Originaldaten)
MMA-Basis: 09.05.2020 - 15.05.2020
Quicknavigation für Darstellung... ?
Tage:      1T, 2T, 3T, 5T -1T -2T -3T -5T +1T +2T +3T +5T
Wochen: 1W, 2W, 3W -1W -2W -3W +1W +2W +3W
Monate: 1M, 3M, 6M -1M -3M -6M +1M +3M +6M
Jahre:    1J, 3J, 5J, 10J -1J -3J -5J -10J +1J +3J +5J +10J
Nutze für die Darstellung ... ?
Originaldaten oder ...
Mittelwerte Minima Maxima auf...
Stundenbasis Tagesbasis Wochenbasis
Monatsbasis Jahresbasis      Datenbasis: Mittelwerte auf Stundenbasis
Darstellen als:
Statistik (Auto) Statistik J:M      Darstellung:
Zur Graphik,    zurück zur Übersicht aller Sensoren.
 
Tabellarische Datenbersicht: ?
 
Sensor: Nr:Datum:Temp:Abs-Feuchte:Windchill:Wind:
Aussen-T/F 1 09-05-2020 00:00:00 12.69167 C 8.09 g/m*3 12.69 C 0 km/h
2 09-05-2020 01:00:00 11.875 C 8.11 g/m*3 11.88 C 0 km/h
3 09-05-2020 02:00:00 11.85 C 8.38 g/m*3 11.85 C 0 km/h
4 09-05-2020 03:00:00 11.29167 C 8.33 g/m*3 11.29 C 0 km/h
5 09-05-2020 04:00:00 9.99167 C 7.82 g/m*3 9.99 C 0 km/h
6 09-05-2020 05:00:00 9.425 C 7.81 g/m*3 9.43 C 0 km/h
7 09-05-2020 06:00:00 9.925 C 8.2 g/m*3 9.93 C 0.26667 km/h
8 09-05-2020 07:00:00 11.175 C 8.65 g/m*3 11.18 C 0 km/h
9 09-05-2020 08:00:00 12.55 C 8.95 g/m*3 12.55 C 0.13333 km/h
10 09-05-2020 09:00:00 14.8 C 9.45 g/m*3 14.8 C 1.06667 km/h
11 09-05-2020 10:00:00 16.65833 C 8.9 g/m*3 16.66 C 3.075 km/h
12 09-05-2020 11:00:00 17.99167 C 8.85 g/m*3 17.99 C 5.48333 km/h
13 09-05-2020 12:00:00 19.55 C 9.1 g/m*3 19.55 C 4.94167 km/h
14 09-05-2020 13:00:00 20.79167 C 9.68 g/m*3 20.79 C 5.21667 km/h
15 09-05-2020 14:00:00 21.06667 C 10.21 g/m*3 21.07 C 5.61667 km/h
16 09-05-2020 15:00:00 20.23333 C 11.24 g/m*3 20.23 C 7.125 km/h
17 09-05-2020 16:00:00 21.25 C 11.65 g/m*3 21.25 C 4.675 km/h
18 09-05-2020 17:00:00 21.28333 C 11.47 g/m*3 21.28 C 4.95833 km/h
19 09-05-2020 18:00:00 22.2 C 11.8 g/m*3 22.2 C 7.11667 km/h
20 09-05-2020 19:00:00 21.95833 C 11.41 g/m*3 21.96 C 4.41667 km/h
21 09-05-2020 20:00:00 20.21667 C 11.99 g/m*3 20.22 C 2.66667 km/h
22 09-05-2020 21:00:00 16.65 C 11.3 g/m*3 16.65 C 3.73333 km/h
23 09-05-2020 22:00:00 14.53333 C 10.74 g/m*3 14.53 C 2.93333 km/h
24 09-05-2020 23:00:00 13.41667 C 10.34 g/m*3 13.42 C 1.73333 km/h
25 10-05-2020 00:00:00 12.45 C 9.94 g/m*3 12.45 C 0.26667 km/h
Sensor: Nr:Datum:Temp:Abs-Feuchte:Windchill:Wind:
Aussen-T/F 26 10-05-2020 01:00:00 11.74167 C 9.58 g/m*3 11.74 C 0 km/h
27 10-05-2020 02:00:00 11.34167 C 9.41 g/m*3 11.34 C 0 km/h
28 10-05-2020 03:00:00 10.90833 C 9.29 g/m*3 10.91 C 0 km/h
29 10-05-2020 04:00:00 10.8 C 9.29 g/m*3 10.8 C 0.13333 km/h
30 10-05-2020 05:00:00 10.9 C 9.44 g/m*3 10.9 C 0.53333 km/h
31 10-05-2020 06:00:00 11.10833 C 9.57 g/m*3 11.11 C 0 km/h
32 10-05-2020 07:00:00 11.6 C 9.9 g/m*3 11.6 C 0 km/h
33 10-05-2020 08:00:00 12.075 C 10.19 g/m*3 12.08 C 0.13333 km/h
34 10-05-2020 09:00:00 12.9 C 10.63 g/m*3 12.9 C 0.53333 km/h
35 10-05-2020 10:00:00 14.68333 C 11.47 g/m*3 14.68 C 0.53333 km/h
36 10-05-2020 11:00:00 17.80833 C 12.45 g/m*3 17.81 C 2 km/h
37 10-05-2020 12:00:00 19.84167 C 12.88 g/m*3 19.84 C 5.49167 km/h
38 10-05-2020 13:00:00 21.11667 C 13.49 g/m*3 21.12 C 5.21667 km/h
39 10-05-2020 14:00:00 22.225 C 13.68 g/m*3 22.23 C 6.55833 km/h
40 10-05-2020 15:00:00 20.58333 C 12.93 g/m*3 20.58 C 7.10833 km/h
41 10-05-2020 16:00:00 19.69167 C 13.15 g/m*3 19.69 C 8.85 km/h
42 10-05-2020 17:00:00 18.26667 C 12.95 g/m*3 18.27 C 3.33333 km/h
43 10-05-2020 18:00:00 18.63333 C 13.17 g/m*3 18.63 C 2.53333 km/h
44 10-05-2020 19:00:00 18.44167 C 13.43 g/m*3 18.44 C 2.26667 km/h
45 10-05-2020 20:00:00 17.7 C 13.2 g/m*3 17.7 C 0.66667 km/h
46 10-05-2020 21:00:00 16.78333 C 12.83 g/m*3 16.78 C 1.06667 km/h
47 10-05-2020 22:00:00 15.84167 C 12.37 g/m*3 15.84 C 2.13333 km/h
48 10-05-2020 23:00:00 15.61667 C 12.38 g/m*3 15.62 C 0.53333 km/h
49 11-05-2020 00:00:00 15.9 C 12.14 g/m*3 15.9 C 10.075 km/h
50 11-05-2020 01:00:00 14.44167 C 10.55 g/m*3 14.44 C 13.7 km/h
Sensor: Nr:Datum:Temp:Abs-Feuchte:Windchill:Wind:
Aussen-T/F 51 11-05-2020 02:00:00 12.51667 C 9.39 g/m*3 12.52 C 14.76667 km/h
52 11-05-2020 03:00:00 10.8 C 8.34 g/m*3 8.9 C 15.03333 km/h
53 11-05-2020 04:00:00 8.78333 C 7.8 g/m*3 6.67 C 13.16667 km/h
54 11-05-2020 05:00:00 7.41667 C 7.36 g/m*3 4.63 C 15.7 km/h
55 11-05-2020 06:00:00 6.79167 C 7.11 g/m*3 4.95 C 9.29167 km/h
56 11-05-2020 07:00:00 6.19167 C 6.77 g/m*3 3.96 C 10.625 km/h
57 11-05-2020 08:00:00 5.8 C 6.67 g/m*3 2.98 C 13.425 km/h
58 11-05-2020 09:00:00 5.38333 C 6.15 g/m*3 1.8 C 17.975 km/h
59 11-05-2020 10:00:00 5.68333 C 6.14 g/m*3 2.77 C 13.83333 km/h
60 11-05-2020 11:00:00 6.16667 C 5.98 g/m*3 2.99 C 16.36667 km/h
61 11-05-2020 12:00:00 6.775 C 6.01 g/m*3 3.68 C 16.90833 km/h
62 11-05-2020 13:00:00 7.65 C 5.85 g/m*3 4.69 C 17.56667 km/h
63 11-05-2020 14:00:00 8.975 C 5.57 g/m*3 6.22 C 18.63333 km/h
64 11-05-2020 15:00:00 11.125 C 5.67 g/m*3 11.13 C 21.18333 km/h
65 11-05-2020 16:00:00 12.23333 C 5.51 g/m*3 12.23 C 24.14167 km/h
66 11-05-2020 17:00:00 12.16667 C 5.22 g/m*3 12.17 C 21.84167 km/h
67 11-05-2020 18:00:00 11.63333 C 4.98 g/m*3 11.63 C 20.78333 km/h
68 11-05-2020 19:00:00 11.625 C 4.88 g/m*3 11.63 C 19.04167 km/h
69 11-05-2020 20:00:00 10.9 C 4.67 g/m*3 8.96 C 15.56667 km/h
70 11-05-2020 21:00:00 9.975 C 4.54 g/m*3 8.54 C 10.35 km/h
71 11-05-2020 22:00:00 9.34167 C 5 g/m*3 9.34 C 3.06667 km/h
72 11-05-2020 23:00:00 7.56667 C 5.45 g/m*3 7.57 C 0.8 km/h
73 12-05-2020 00:00:00 5.375 C 5.19 g/m*3 5.38 C 2.4 km/h
74 12-05-2020 01:00:00 4.10833 C 4.99 g/m*3 4.11 C 2 km/h
75 12-05-2020 02:00:00 4.15 C 4.86 g/m*3 4.15 C 3.73333 km/h
Sensor: Nr:Datum:Temp:Abs-Feuchte:Windchill:Wind:
Aussen-T/F 76 12-05-2020 03:00:00 2.98333 C 4.75 g/m*3 1.65 C 5.34167 km/h
77 12-05-2020 04:00:00 2.43333 C 4.68 g/m*3 0.76 C 6.025 km/h
78 12-05-2020 05:00:00 2.01667 C 4.63 g/m*3 2.02 C 4.29167 km/h
79 12-05-2020 06:00:00 1.14167 C 4.56 g/m*3 1.14 C 0.26667 km/h
80 12-05-2020 07:00:00 1.29167 C 4.78 g/m*3 1.29 C 0.4 km/h
81 12-05-2020 08:00:00 2.49167 C 5.2 g/m*3 2.49 C 0.4 km/h
82 12-05-2020 09:00:00 4.41667 C 5.59 g/m*3 4.42 C 0.66667 km/h
83 12-05-2020 10:00:00 7.05 C 5.51 g/m*3 7.05 C 3.75 km/h
84 12-05-2020 11:00:00 9.075 C 5.03 g/m*3 8.36 C 6.175 km/h
85 12-05-2020 12:00:00 9.925 C 4.14 g/m*3 8.72 C 9.025 km/h
86 12-05-2020 13:00:00 10.93333 C 4.11 g/m*3 9.92 C 9 km/h
87 12-05-2020 14:00:00 12.06667 C 4.67 g/m*3 12.07 C 10.21667 km/h
88 12-05-2020 15:00:00 13.10833 C 4.97 g/m*3 13.11 C 11.29167 km/h
89 12-05-2020 16:00:00 14.075 C 5.11 g/m*3 14.08 C 9.14167 km/h
90 12-05-2020 17:00:00 14.19167 C 5.25 g/m*3 14.19 C 9.15 km/h
91 12-05-2020 18:00:00 14.98333 C 5.36 g/m*3 14.98 C 7.38333 km/h
92 12-05-2020 19:00:00 13.53333 C 5.25 g/m*3 13.53 C 6.56667 km/h
93 12-05-2020 20:00:00 11.91667 C 5.68 g/m*3 11.92 C 2.53333 km/h
94 12-05-2020 21:00:00 8.88333 C 5.86 g/m*3 8.88 C 1.6 km/h
95 12-05-2020 22:00:00 7.41667 C 5.55 g/m*3 7.42 C 4 km/h
96 12-05-2020 23:00:00 6.675 C 5.53 g/m*3 6.68 C 4.675 km/h
97 13-05-2020 00:00:00 5.56667 C 5.53 g/m*3 5.57 C 0.26667 km/h
98 13-05-2020 01:00:00 4.23333 C 5.34 g/m*3 4.23 C 0 km/h
99 13-05-2020 02:00:00 3.325 C 5.18 g/m*3 3.33 C 0.13333 km/h
100 13-05-2020 03:00:00 2.66667 C 5.11 g/m*3 2.67 C 0.13333 km/h
Sensor: Nr:Datum:Temp:Abs-Feuchte:Windchill:Wind:
Aussen-T/F 101 13-05-2020 04:00:00 2.14167 C 5.04 g/m*3 2.14 C 0.26667 km/h
102 13-05-2020 05:00:00 2.05833 C 5.12 g/m*3 2.06 C 0.13333 km/h
103 13-05-2020 06:00:00 2.91667 C 5.44 g/m*3 2.92 C 0.8 km/h
104 13-05-2020 07:00:00 3.74167 C 5.62 g/m*3 3.74 C 2.93333 km/h
105 13-05-2020 08:00:00 5.33333 C 5.88 g/m*3 5.33 C 1.33333 km/h
106 13-05-2020 09:00:00 6.41667 C 6.27 g/m*3 6.42 C 0.66667 km/h
107 13-05-2020 10:00:00 8.96667 C 6.02 g/m*3 8.97 C 2.53333 km/h
108 13-05-2020 11:00:00 11.75 C 5.9 g/m*3 11.75 C 7.1 km/h
109 13-05-2020 12:00:00 13.05 C 5.69 g/m*3 13.05 C 8.475 km/h
110 13-05-2020 13:00:00 13.64167 C 5.89 g/m*3 13.64 C 10.60833 km/h
111 13-05-2020 14:00:00 14.16667 C 5.83 g/m*3 14.17 C 10.08333 km/h
112 13-05-2020 15:00:00 14.65 C 5.77 g/m*3 14.65 C 13.43333 km/h
113 13-05-2020 16:00:00 14.875 C 5.68 g/m*3 14.88 C 11.55833 km/h
114 13-05-2020 17:00:00 14.58333 C 5.64 g/m*3 14.58 C 10.625 km/h
115 13-05-2020 18:00:00 13.725 C 5.46 g/m*3 13.73 C 11.025 km/h
116 13-05-2020 19:00:00 12.9 C 5.41 g/m*3 12.9 C 8.875 km/h
117 13-05-2020 20:00:00 12.8 C 5.54 g/m*3 12.8 C 4.93333 km/h
118 13-05-2020 21:00:00 11.775 C 6.06 g/m*3 11.78 C 8.06667 km/h
119 13-05-2020 22:00:00 10.10833 C 6.65 g/m*3 9.27 C 7.375 km/h
120 13-05-2020 23:00:00 8.83333 C 6.47 g/m*3 7.91 C 6.84167 km/h
121 14-05-2020 00:00:00 8.14167 C 6.35 g/m*3 6.66 C 8.74167 km/h
122 14-05-2020 01:00:00 7.41667 C 6.14 g/m*3 7.42 C 4.825 km/h
123 14-05-2020 02:00:00 6.325 C 6.01 g/m*3 6.33 C 3.475 km/h
124 14-05-2020 03:00:00 6.225 C 6.06 g/m*3 6.23 C 2 km/h
125 14-05-2020 04:00:00 6.075 C 6.02 g/m*3 6.08 C 2.4 km/h
Sensor: Nr:Datum:Temp:Abs-Feuchte:Windchill:Wind:
Aussen-T/F 126 14-05-2020 05:00:00 5.85833 C 5.97 g/m*3 4.93 C 5.35 km/h
127 14-05-2020 06:00:00 5.05833 C 5.81 g/m*3 5.06 C 2 km/h
128 14-05-2020 07:00:00 4.64167 C 5.89 g/m*3 4.64 C 3.21667 km/h
129 14-05-2020 08:00:00 6.58333 C 6.1 g/m*3 5.08 C 7.64167 km/h
130 14-05-2020 09:00:00 7.775 C 6.1 g/m*3 6.55 C 7.36667 km/h
131 14-05-2020 10:00:00 9.075 C 6.17 g/m*3 8.03 C 7.50833 km/h
132 14-05-2020 11:00:00 10.89167 C 6.24 g/m*3 9.8 C 9.4 km/h
133 14-05-2020 12:00:00 12.19167 C 6.17 g/m*3 12.19 C 11.425 km/h
134 14-05-2020 13:00:00 13.35 C 6.12 g/m*3 13.35 C 11.29167 km/h
135 14-05-2020 14:00:00 14.15 C 5.88 g/m*3 14.15 C 8.58333 km/h
136 14-05-2020 15:00:00 14.40833 C 5.82 g/m*3 14.41 C 8.19167 km/h
137 14-05-2020 16:00:00 14.88333 C 5.68 g/m*3 14.88 C 11.3 km/h
138 14-05-2020 17:00:00 14.39167 C 5.71 g/m*3 14.39 C 13.96667 km/h
139 14-05-2020 18:00:00 14.85833 C 5.71 g/m*3 14.86 C 13.3 km/h
140 14-05-2020 19:00:00 14.79167 C 5.69 g/m*3 14.79 C 5.23333 km/h
141 14-05-2020 20:00:00 11.91667 C 6.06 g/m*3 11.92 C 2.13333 km/h
142 14-05-2020 21:00:00 9.2 C 5.71 g/m*3 9.2 C 2.66667 km/h
143 14-05-2020 22:00:00 7.80833 C 5.56 g/m*3 7.81 C 3.46667 km/h
144 14-05-2020 23:00:00 7.11667 C 5.49 g/m*3 6.41 C 5.20833 km/h
145 15-05-2020 00:00:00 6.325 C 5.5 g/m*3 6.33 C 2.8 km/h
146 15-05-2020 01:00:00 5.45 C 5.43 g/m*3 5.45 C 3.73333 km/h
147 15-05-2020 02:00:00 5.125 C 5.29 g/m*3 4.2 C 5.06667 km/h
148 15-05-2020 03:00:00 4.26667 C 5.19 g/m*3 4.27 C 0.66667 km/h
149 15-05-2020 04:00:00 3.48333 C 5.1 g/m*3 3.48 C 0.26667 km/h
150 15-05-2020 05:00:00 2.50833 C 4.98 g/m*3 2.51 C 0 km/h
Sensor: Nr:Datum:Temp:Abs-Feuchte:Windchill:Wind:
Aussen-T/F 151 15-05-2020 06:00:00 2.15 C 5.02 g/m*3 2.15 C 0 km/h
152 15-05-2020 07:00:00 3.15833 C 5.4 g/m*3 3.16 C 1.2 km/h
153 15-05-2020 08:00:00 4.925 C 5.79 g/m*3 4.93 C 2.53333 km/h
154 15-05-2020 09:00:00 7.46667 C 6.02 g/m*3 6.85 C 5.08333 km/h
155 15-05-2020 10:00:00 10.51667 C 6.06 g/m*3 10.06 C 6.03333 km/h
156 15-05-2020 11:00:00 12.88333 C 5.97 g/m*3 12.88 C 9.11667 km/h
157 15-05-2020 12:00:00 14.1 C 5.46 g/m*3 14.1 C 13.825 km/h
158 15-05-2020 13:00:00 14.91667 C 5.69 g/m*3 14.92 C 10.88333 km/h
159 15-05-2020 14:00:00 16.00833 C 5.85 g/m*3 16.01 C 10.75833 km/h
160 15-05-2020 15:00:00 17.775 C 5.78 g/m*3 17.77 C 13.025 km/h
161 15-05-2020 16:00:00 18.525 C 5.64 g/m*3 18.52 C 14.23333 km/h
162 15-05-2020 17:00:00 18.55 C 5.34 g/m*3 18.55 C 11.83333 km/h
163 15-05-2020 18:00:00 18.05833 C 5.25 g/m*3 18.06 C 11.56667 km/h
164 15-05-2020 19:00:00 17.35833 C 5.03 g/m*3 17.36 C 9.825 km/h
165 15-05-2020 20:00:00 15.7 C 5.16 g/m*3 15.7 C 4.675 km/h
166 15-05-2020 21:00:00 12.11667 C 5.62 g/m*3 12.12 C 4.14167 km/h
167 15-05-2020 22:00:00 10.10833 C 5.85 g/m*3 10.11 C 3.2 km/h
168 15-05-2020 23:00:00 8.90833 C 5.88 g/m*3 8.91 C 2 km/h

Maximal/Minimal-Werte vom 09.05.2020 - 15.05.2020

Sensor Min Max Avg
Temp
(Aussen-T/F)
0.9 °C
12-05-2020  06:55:00
22.9 °C
09-05-2020  19:05:00
11.1 °C
Abs-Feuchte
(Aussen-T/F)
4.11 g/m*3
12-05-2020  13:00:00
13.68 g/m*3
10-05-2020  14:00:00
7.1 g/m*3
Windchill
(Aussen-T/F)
0.76 C
12-05-2020  04:00:00
22.23 C
10-05-2020  14:00:00
10.72 C

Die Daten stammen von einer Davis Vantage Pro 2 Wetter-Station und werden unter Linux mit der Software wview2wettercgi und aufbereitet. Alle Angaben erfolgen ohne Gewähr für ihre Vollständigkeit oder Richtigkeit.
Kontakt: Rainer Krienke krienke@uni-koblenz.de . Meine Webseiten an der Uni Koblenz oder privat.
Version: $Revision: 0.78 $